,,,PA_Meas_PMT16A,,PR_Meas_QMR101_102,,RH_Meas_QMH101,,SR_Meas_QMS101,,TA_Meas_QMH101,,GenWind,,GenWind,
date,time,status,PA,status,PR,status,RH,status,SR,status,TA,status,DirAvg,status,SpdAvg,
2009-12-13, 00:00:04,VALID,1003.1,VALID,0,VALID,85.6113,VALID,0,VALID,25.8629,VALID,5,VALID,0.584375,
2009-12-13, 00:01:04,VALID,1003.05,VALID,0,VALID,85.7257,VALID,0,VALID,25.8453,VALID,21,VALID,1.03633,
2009-12-13, 00:02:04,VALID,1003.01,VALID,0,VALID,85.802,VALID,0,VALID,25.8259,VALID,9,VALID,1.1875,
2009-12-13, 00:03:04,VALID,1003,VALID,0,VALID,85.6342,VALID,0,VALID,25.8453,VALID,334,VALID,1.00312,
2009-12-13, 00:04:04,VALID,1002.99,VALID,0,VALID,85.5198,VALID,0,VALID,25.8629,VALID,341,VALID,0.926562,
2009-12-13, 00:05:04,VALID,1002.96,VALID,0,VALID,85.3901,VALID,0,VALID,25.8629,VALID,339,VALID,1.30156,
2009-12-13, 00:06:04,VALID,1003,VALID,0,VALID,85.2375,VALID,0,VALID,25.9427,VALID,302,VALID,0.872656,
2009-12-13, 00:07:04,VALID,1002.97,VALID,0,VALID,85.0773,VALID,0,VALID,25.9408,VALID,355,VALID,1.08438,
2009-12-13, 00:08:04,VALID,1002.97,VALID,0,VALID,84.9781,VALID,0,VALID,25.9622,VALID,359,VALID,0.759766,
2009-12-13, 00:09:04,VALID,1002.94,VALID,0,VALID,84.7797,VALID,0,VALID,26.0012,VALID,337,VALID,1.40156,
2009-12-13, 00:10:04,VALID,1002.96,VALID,0,VALID,84.6272,VALID,0,VALID,26.0381,VALID,5,VALID,1.46133,
2009-12-13, 00:11:04,VALID,1002.91,VALID,0,VALID,84.5356,VALID,0,VALID,26.0791,VALID,3,VALID,1.28789,
2009-12-13, 00:12:04,VALID,1002.93,VALID,0,VALID,84.4441,VALID,0,VALID,26.0576,VALID,349,VALID,1.21953,
2009-12-13, 00:13:04,VALID,1002.93,VALID,0,VALID,84.4822,VALID,0,VALID,26.0576,VALID,345,VALID,0.810547,
2009-12-13, 00:14:04,VALID,1002.95,VALID,0,VALID,84.5738,VALID,0,VALID,26.0381,VALID,347,VALID,1.26836,
2009-12-13, 00:15:04,VALID,1002.99,VALID,0,VALID,84.4059,VALID,0,VALID,26.0576,VALID,352,VALID,1.37266,
2009-12-13, 00:16:04,VALID,1002.95,VALID,0,VALID,84.3525,VALID,0,VALID,26.0771,VALID,350,VALID,1.35,
2009-12-13, 00:17:04,VALID,1002.98,VALID,0,VALID,84.3602,VALID,0,VALID,26.0771,VALID,355,VALID,0.694141,
2009-12-13, 00:18:04,VALID,1002.97,VALID,0,VALID,84.3602,VALID,0,VALID,26.0771,VALID,341,VALID,0.991406,
2009-12-13, 00:19:04,VALID,1002.96,VALID,0,VALID,84.4059,VALID,0,VALID,26.0576,VALID,346,VALID,0.971875,
2009-12-13, 00:20:04,VALID,1002.93,VALID,0,VALID,84.3144,VALID,0,VALID,26.0985,VALID,347,VALID,1.24414,
2009-12-13, 00:21:04,VALID,1002.92,VALID,0,VALID,84.4212,VALID,0,VALID,26.0771,VALID,7,VALID,1.55742,
2009-12-13, 00:22:04,VALID,1002.96,VALID,0,VALID,84.5051,VALID,0,VALID,26.0791,VALID,358,VALID,0.996875,
2009-12-13, 00:23:04,VALID,1002.93,VALID,0,VALID,84.5967,VALID,0,VALID,26.0596,VALID,12,VALID,0.897656,
2009-12-13, 00:24:04,VALID,1002.9,VALID,0,VALID,84.7187,VALID,0,VALID,26.0187,VALID,6,VALID,0.721094,
2009-12-13, 00:25:04,VALID,1002.92,VALID,0,VALID,84.8484,VALID,0,VALID,25.9797,VALID,7,VALID,0.432031,
2009-12-13, 00:26:04,VALID,1002.93,VALID,0,VALID,84.9018,VALID,0,VALID,25.9408,VALID,346,VALID,0.691406,
2009-12-13, 00:27:04,VALID,1002.95,VALID,0,VALID,84.9857,VALID,0,VALID,25.9622,VALID,10,VALID,0.694141,
2009-12-13, 00:28:04,VALID,1002.96,VALID,0,VALID,85.0544,VALID,0,VALID,25.9427,VALID,340,VALID,0.401172,
2009-12-13, 00:29:04,VALID,1002.99,VALID,0,VALID,85.0544,VALID,0,VALID,25.9427,VALID,357,VALID,0.625781,
2009-12-13, 00:30:04,VALID,1003.01,VALID,0,VALID,85.0391,VALID,0,VALID,25.9213,VALID,1,VALID,1.13555,
2009-12-13, 00:31:04,VALID,1003.01,VALID,0,VALID,84.8789,VALID,0,VALID,25.9408,VALID,347,VALID,0.957422,
2009-12-13, 00:32:04,VALID,1003.04,VALID,0,VALID,84.8179,VALID,0,VALID,25.9817,VALID,16,VALID,1.23047,
2009-12-13, 00:33:04,VALID,1003,VALID,0,VALID,84.6806,VALID,0,VALID,25.9797,VALID,334,VALID,0.710547,
2009-12-13, 00:34:04,VALID,1002.99,VALID,0,VALID,84.6501,VALID,0,VALID,25.9602,VALID,341,VALID,0.864453,
2009-12-13, 00:35:04,VALID,1002.96,VALID,0,VALID,84.856,VALID,0,VALID,25.9797,VALID,4,VALID,0.867578,
2009-12-13, 00:36:04,VALID,1002.98,VALID,0,VALID,84.7187,VALID,0,VALID,25.9817,VALID,330,VALID,0.425391,
2009-12-13, 00:37:04,VALID,1002.93,VALID,0,VALID,84.7797,VALID,0,VALID,25.9797,VALID,358,VALID,0.989844,
2009-12-13, 00:38:04,VALID,1002.96,VALID,0,VALID,84.8332,VALID,0,VALID,26.0012,VALID,350,VALID,0.992188,
2009-12-13, 00:39:04,VALID,1002.93,VALID,0,VALID,84.7874,VALID,0,VALID,25.9797,VALID,7,VALID,1.17773,
2009-12-13, 00:40:04,VALID,1002.94,VALID,0,VALID,84.6882,VALID,0,VALID,25.9797,VALID,342,VALID,0.953906,
2009-12-13, 00:41:04,VALID,1002.95,VALID,0,VALID,84.6882,VALID,0,VALID,26.0012,VALID,356,VALID,0.827344,
2009-12-13, 00:42:04,VALID,1002.95,VALID,0,VALID,84.7187,VALID,0,VALID,26.0012,VALID,7,VALID,1.1832,
2009-12-13, 00:43:04,VALID,1002.96,VALID,0,VALID,84.6195,VALID,0,VALID,25.9602,VALID,351,VALID,1.06914,
2009-12-13, 00:44:04,VALID,1002.99,VALID,0,VALID,84.6043,VALID,0,VALID,26.0206,VALID,1,VALID,0.905859,
2009-12-13, 00:45:04,VALID,1002.97,VALID,0,VALID,84.5967,VALID,0,VALID,25.9797,VALID,345,VALID,1.18516,
2009-12-13, 00:46:04,VALID,1002.98,VALID,0,VALID,84.6043,VALID,0,VALID,25.9992,VALID,344,VALID,0.725781,
2009-12-13, 00:47:04,VALID,1002.97,VALID,0,VALID,84.6501,VALID,0,VALID,26.0012,VALID,357,VALID,0.774219,
2009-12-13, 00:48:04,VALID,1002.92,VALID,0,VALID,84.734,VALID,0,VALID,26.0012,VALID,7,VALID,1.02422,
2009-12-13, 00:49:05,VALID,1002.9,VALID,0,VALID,84.8026,VALID,0,VALID,25.9797,VALID,22,VALID,0.715234,
2009-12-13, 00:50:05,VALID,1002.86,VALID,0,VALID,84.4212,VALID,0,VALID,25.9992,VALID,5,VALID,2.23789,
2009-12-13, 00:51:05,VALID,1002.85,VALID,0,VALID,84.3144,VALID,0,VALID,26.0576,VALID,356,VALID,0.751953,
2009-12-13, 00:52:05,VALID,1002.85,VALID,0,VALID,84.2305,VALID,0,VALID,26.0791,VALID,358,VALID,1.61836,
2009-12-13, 00:53:05,VALID,1002.84,VALID,0,VALID,84.2381,VALID,0,VALID,26.0576,VALID,5,VALID,1.38164,
2009-12-13, 00:54:05,VALID,1002.83,VALID,0,VALID,84.0092,VALID,0,VALID,26.0966,VALID,348,VALID,1.46211,
2009-12-13, 00:55:05,VALID,1002.84,VALID,0,VALID,83.9253,VALID,0,VALID,26.0966,VALID,346,VALID,1.18867,
2009-12-13, 00:56:05,VALID,1002.84,VALID,0,VALID,83.8719,VALID,0,VALID,26.1355,VALID,5,VALID,1.62109,
2009-12-13, 00:57:05,VALID,1002.86,VALID,0,VALID,83.7498,VALID,0,VALID,26.1765,VALID,360,VALID,1.14961,
2009-12-13, 00:58:05,VALID,1002.86,VALID,0,VALID,83.7041,VALID,0,VALID,26.1745,VALID,357,VALID,0.657812,
2009-12-13, 00:59:05,VALID,1002.87,VALID,0,VALID,83.6812,VALID,0,VALID,26.1959,VALID,352,VALID,0.744531,
2009-12-13, 01:00:05,VALID,1002.85,VALID,0,VALID,83.849,VALID,0,VALID,26.1355,VALID,3,VALID,1.18281,
2009-12-13, 01:01:05,VALID,1002.86,VALID,0,VALID,83.7651,VALID,0,VALID,26.157,VALID,349,VALID,1.03867,
2009-12-13, 01:02:05,VALID,1002.86,VALID,0,VALID,83.8795,VALID,0,VALID,26.1355,VALID,357,VALID,1.00078,
2009-12-13, 01:03:05,VALID,1002.86,VALID,0,VALID,83.849,VALID,0,VALID,26.1375,VALID,332,VALID,0.766406,
2009-12-13, 01:04:05,VALID,1002.85,VALID,0,VALID,83.9863,VALID,0,VALID,26.116,VALID,7,VALID,0.860156,
2009-12-13, 01:05:05,VALID,1002.85,VALID,0,VALID,83.9863,VALID,0,VALID,26.0966,VALID,356,VALID,0.308984,
2009-12-13, 01:06:05,VALID,1002.85,VALID,0,VALID,83.9406,VALID,0,VALID,26.118,VALID,336,VALID,0.963672,
2009-12-13, 01:07:05,VALID,1002.82,VALID,0,VALID,84.1694,VALID,0,VALID,26.0791,VALID,7,VALID,0.721094,
2009-12-13, 01:08:05,VALID,1002.81,VALID,0,VALID,84.3373,VALID,0,VALID,26.0401,VALID,10,VALID,0.609766,
2009-12-13, 01:09:05,VALID,1002.78,VALID,0,VALID,84.3144,VALID,0,VALID,26.0187,VALID,28,VALID,0.698047,
2009-12-13, 01:10:05,VALID,1002.76,VALID,0,VALID,84.4899,VALID,0,VALID,26.0187,VALID,28,VALID,0.620703,
2009-12-13, 01:11:05,VALID,1002.78,VALID,0,VALID,84.3373,VALID,0,VALID,25.9797,VALID,8,VALID,0.824219,
2009-12-13, 01:12:05,VALID,1002.76,VALID,0,VALID,84.5356,VALID,0,VALID,25.9797,VALID,10,VALID,0.444531,
2009-12-13, 01:13:05,VALID,1002.72,VALID,0,VALID,84.5509,VALID,0,VALID,25.9602,VALID,360,VALID,0.620313,
2009-12-13, 01:14:05,VALID,1002.73,VALID,0,VALID,84.6653,VALID,0,VALID,25.9213,VALID,5,VALID,0.439844,
2009-12-13, 01:15:05,VALID,1002.72,VALID,0,VALID,84.6729,VALID,0,VALID,25.9213,VALID,4,VALID,1.07969,
2009-12-13, 01:16:05,VALID,1002.71,VALID,0,VALID,84.4746,VALID,0,VALID,25.9213,VALID,353,VALID,1.01016,
2009-12-13, 01:17:05,VALID,1002.7,VALID,0,VALID,84.4899,VALID,0,VALID,25.9622,VALID,354,VALID,0.869531,
2009-12-13, 01:18:05,VALID,1002.68,VALID,0,VALID,84.1466,VALID,0,VALID,25.9408,VALID,353,VALID,1.38906,
2009-12-13, 01:19:05,VALID,1002.69,VALID,0,VALID,84.0092,VALID,0,VALID,25.9797,VALID,3,VALID,1.02539,
2009-12-13, 01:20:05,VALID,1002.65,VALID,0,VALID,83.8338,VALID,0,VALID,26.0187,VALID,4,VALID,1.31992,
2009-12-13, 01:21:05,VALID,1002.64,VALID,0,VALID,83.7193,VALID,0,VALID,26.0596,VALID,356,VALID,1.10273,
2009-12-13, 01:22:05,VALID,1002.64,VALID,0,VALID,83.6278,VALID,0,VALID,26.0576,VALID,360,VALID,1.06055,
2009-12-13, 01:23:05,VALID,1002.64,VALID,0,VALID,83.7575,VALID,0,VALID,26.0771,VALID,359,VALID,0.658984,
2009-12-13, 01:24:05,VALID,1002.67,VALID,0,VALID,83.7651,VALID,0,VALID,26.0596,VALID,359,VALID,0.510156,
2009-12-13, 01:25:05,VALID,1002.66,VALID,0,VALID,83.8185,VALID,0,VALID,26.0596,VALID,15,VALID,0.585547,
2009-12-13, 01:26:05,VALID,1002.71,VALID,0,VALID,83.8795,VALID,0,VALID,26.0401,VALID,14,VALID,0.364062,
2009-12-13, 01:27:05,VALID,1002.72,VALID,0,VALID,84.0397,VALID,0.100563,VALID,25.9992,VALID,14,VALID,0.372266,
2009-12-13, 01:28:05,VALID,1002.75,VALID,0,VALID,83.994,VALID,0,VALID,26.0012,VALID,14,VALID,0.317969,
2009-12-13, 01:29:05,VALID,1002.74,VALID,0,VALID,83.9863,VALID,0,VALID,25.9602,VALID,9,VALID,0.498437,
2009-12-13, 01:30:05,VALID,1002.72,VALID,0,VALID,84.1694,VALID,0,VALID,25.9817,VALID,12,VALID,0.461719,
2009-12-13, 01:31:05,VALID,1002.73,VALID,0,VALID,84.2686,VALID,0,VALID,25.9193,VALID,14,VALID,0.0078125,
2009-12-13, 01:32:05,VALID,1002.74,VALID,0,VALID,84.2534,VALID,0,VALID,25.9427,VALID,27,VALID,0.56875,
2009-12-13, 01:33:05,VALID,1002.73,VALID,0,VALID,84.5509,VALID,0,VALID,25.9232,VALID,19,VALID,0.6125,
2009-12-13, 01:34:05,VALID,1002.73,VALID,0,VALID,84.734,VALID,0,VALID,25.8629,VALID,356,VALID,0.623828,
2009-12-13, 01:35:05,VALID,1002.74,VALID,0,VALID,84.8484,VALID,0,VALID,25.8453,VALID,5,VALID,1.10625,
2009-12-13, 01:36:05,VALID,1002.77,VALID,0,VALID,84.4136,VALID,0,VALID,25.8843,VALID,2,VALID,1.31992,
2009-12-13, 01:37:05,VALID,1002.8,VALID,0,VALID,84.2991,VALID,0,VALID,25.8629,VALID,2,VALID,0.679297,
2009-12-13, 01:38:05,VALID,1002.82,VALID,0,VALID,84.3678,VALID,0,VALID,25.8823,VALID,13,VALID,0.583203,
2009-12-13, 01:39:05,VALID,1002.85,VALID,0,VALID,84.5433,VALID,0,VALID,25.8823,VALID,12,VALID,0.319141,
2009-12-13, 01:40:05,VALID,1002.86,VALID,0,VALID,84.5433,VALID,0,VALID,25.8843,VALID,17,VALID,0.853906,
2009-12-13, 01:41:05,VALID,1002.85,VALID,0,VALID,84.5967,VALID,0,VALID,25.8629,VALID,360,VALID,0.430859,
2009-12-13, 01:42:05,VALID,1002.85,VALID,0,VALID,84.7569,VALID,0,VALID,25.8434,VALID,360,VALID,0.198828,
2009-12-13, 01:43:05,VALID,1002.88,VALID,0,VALID,84.9094,VALID,0,VALID,25.8453,VALID,360,VALID,0.0359375,
2009-12-13, 01:44:05,VALID,1002.86,VALID,0,VALID,84.9628,VALID,0,VALID,25.8239,VALID,359,VALID,0.451562,
2009-12-13, 01:45:05,VALID,1002.87,VALID,0,VALID,85.1536,VALID,0,VALID,25.8044,VALID,10,VALID,0.45625,
2009-12-13, 01:46:05,VALID,1002.9,VALID,0,VALID,85.2909,VALID,0,VALID,25.785,VALID,12,VALID,0.667969,
2009-12-13, 01:47:05,VALID,1002.89,VALID,0,VALID,85.0925,VALID,0,VALID,25.8064,VALID,35,VALID,0.691016,
2009-12-13, 01:48:05,VALID,1002.89,VALID,0,VALID,84.8637,VALID,0,VALID,25.8453,VALID,344,VALID,0.538281,
2009-12-13, 01:49:05,VALID,1002.91,VALID,0,VALID,84.5738,VALID,0,VALID,25.8453,VALID,351,VALID,0.998828,
2009-12-13, 01:50:05,VALID,1002.91,VALID,0,VALID,84.4364,VALID,0,VALID,25.8823,VALID,353,VALID,0.539063,
2009-12-13, 01:51:05,VALID,1002.92,VALID,0,VALID,84.4136,VALID,0,VALID,25.9213,VALID,4,VALID,0.519922,
2009-12-13, 01:52:05,VALID,1002.9,VALID,0,VALID,84.261,VALID,0,VALID,25.9213,VALID,318,VALID,0.382813,
2009-12-13, 01:53:05,VALID,1002.89,VALID,0,VALID,84.4975,VALID,0,VALID,25.9213,VALID,267,VALID,0.176563,
2009-12-13, 01:54:05,VALID,1002.87,VALID,0,VALID,84.4899,VALID,0,VALID,25.9408,VALID,267,VALID,0.476563,
2009-12-13, 01:55:05,VALID,1002.87,VALID,0,VALID,84.1694,VALID,0,VALID,25.9602,VALID,322,VALID,0.650391,
2009-12-13, 01:56:05,VALID,1002.83,VALID,0,VALID,84.0626,VALID,0,VALID,25.9797,VALID,354,VALID,0.329688,
2009-12-13, 01:57:05,VALID,1002.83,VALID,0,VALID,84.1847,VALID,0,VALID,26.0187,VALID,8,VALID,0.564062,
2009-12-13, 01:58:05,VALID,1002.79,VALID,0,VALID,83.8872,VALID,0.100563,VALID,26.0401,VALID,8,VALID,0.261328,
2009-12-13, 01:59:05,VALID,1002.78,VALID,0,VALID,83.849,VALID,0,VALID,26.0381,VALID,358,VALID,0.197656,
2009-12-13, 02:00:05,VALID,1002.73,VALID,0,VALID,83.8795,VALID,0,VALID,26.0381,VALID,357,VALID,0.239844,
2009-12-13, 02:01:05,VALID,1002.75,VALID,0,VALID,83.5362,VALID,0,VALID,26.0401,VALID,266,VALID,1.2707,
2009-12-13, 02:02:05,VALID,1002.73,VALID,0,VALID,83.2997,VALID,0,VALID,26.0596,VALID,342,VALID,1.45313,
2009-12-13, 02:03:05,VALID,1002.72,VALID,0,VALID,83.1777,VALID,0,VALID,26.118,VALID,351,VALID,0.391406,
2009-12-13, 02:04:05,VALID,1002.71,VALID,0,VALID,83.0632,VALID,0,VALID,26.116,VALID,356,VALID,0.573047,
2009-12-13, 02:05:05,VALID,1002.71,VALID,0,VALID,83.2387,VALID,0,VALID,26.1375,VALID,358,VALID,0.250391,
2009-12-13, 02:06:05,VALID,1002.68,VALID,0,VALID,83.2006,VALID,0,VALID,26.116,VALID,334,VALID,0.291797,
2009-12-13, 02:07:05,VALID,1002.67,VALID,0,VALID,83.2387,VALID,0,VALID,26.0966,VALID,282,VALID,0.782031,
2009-12-13, 02:08:05,VALID,1002.65,VALID,0,VALID,83.315,VALID,0,VALID,26.116,VALID,282,VALID,0.283984,
2009-12-13, 02:09:05,VALID,1002.68,VALID,0,VALID,83.3531,VALID,0,VALID,26.118,VALID,304,VALID,0.282422,
2009-12-13, 02:10:05,VALID,1002.68,VALID,0,VALID,83.4447,VALID,0,VALID,26.0985,VALID,344,VALID,0.528906,
2009-12-13, 02:11:05,VALID,1002.67,VALID,0,VALID,83.4676,VALID,0,VALID,26.0596,VALID,335,VALID,0.608984,
2009-12-13, 02:12:05,VALID,1002.66,VALID,0,VALID,83.582,VALID,0,VALID,26.0596,VALID,348,VALID,0.644531,
2009-12-13, 02:13:05,VALID,1002.64,VALID,0,VALID,83.6736,VALID,0,VALID,26.0167,VALID,348,VALID,0.160156,
2009-12-13, 02:14:05,VALID,1002.65,VALID,0,VALID,83.6354,VALID,0,VALID,26.0012,VALID,345,VALID,0.481641,
2009-12-13, 02:15:05,VALID,1002.67,VALID,0,VALID,83.8033,VALID,0,VALID,26.0206,VALID,353,VALID,0.65625,
2009-12-13, 02:16:05,VALID,1002.69,VALID,0,VALID,83.8109,VALID,0,VALID,25.9602,VALID,333,VALID,0.816797,
2009-12-13, 02:17:05,VALID,1002.7,VALID,0,VALID,83.788,VALID,0,VALID,26.0012,VALID,322,VALID,0.510156,
2009-12-13, 02:18:05,VALID,1002.65,VALID,0,VALID,83.6507,VALID,0,VALID,26.0012,VALID,344,VALID,0.169922,
2009-12-13, 02:19:05,VALID,1002.63,VALID,0,VALID,83.8109,VALID,0,VALID,26.0206,VALID,341,VALID,0.253906,
2009-12-13, 02:20:05,VALID,1002.64,VALID,0,VALID,83.8261,VALID,0,VALID,25.9797,VALID,342,VALID,0.121875,
2009-12-13, 02:21:05,VALID,1002.62,VALID,0,VALID,83.8872,VALID,0,VALID,25.9602,VALID,346,VALID,0.166016,
2009-12-13, 02:22:05,VALID,1002.59,VALID,0,VALID,83.8185,VALID,0,VALID,25.9602,VALID,305,VALID,1.03984,
2009-12-13, 02:23:05,VALID,1002.57,VALID,0,VALID,84.0321,VALID,0,VALID,25.9602,VALID,296,VALID,0.304297,
2009-12-13, 02:24:05,VALID,1002.54,VALID,0,VALID,83.9787,VALID,0,VALID,25.9817,VALID,334,VALID,0.878125,
2009-12-13, 02:25:05,VALID,1002.51,VALID,0,VALID,84.0092,VALID,0,VALID,25.9622,VALID,8,VALID,0.544531,
2009-12-13, 02:26:05,VALID,1002.49,VALID,0,VALID,83.9863,VALID,0,VALID,25.9427,VALID,339,VALID,0.462109,
2009-12-13, 02:27:05,VALID,1002.45,VALID,0,VALID,84.1771,VALID,0,VALID,25.8804,VALID,352,VALID,0.958984,
2009-12-13, 02:28:05,VALID,1002.43,VALID,0,VALID,84.2381,VALID,0,VALID,25.8823,VALID,341,VALID,0.997266,
2009-12-13, 02:29:05,VALID,1002.44,VALID,0,VALID,84.3373,VALID,0,VALID,25.8629,VALID,356,VALID,0.462891,
2009-12-13, 02:30:05,VALID,1002.42,VALID,0,VALID,84.4746,VALID,0,VALID,25.8648,VALID,355,VALID,0.580469,
2009-12-13, 02:31:05,VALID,1002.43,VALID,0,VALID,84.5509,VALID,0,VALID,25.8239,VALID,352,VALID,0.848828,
2009-12-13, 02:32:05,VALID,1002.41,VALID,0,VALID,84.7874,VALID,0,VALID,25.785,VALID,350,VALID,0.814844,
2009-12-13, 02:33:05,VALID,1002.44,VALID,0,VALID,84.8866,VALID,0,VALID,25.7655,VALID,342,VALID,0.786719,
2009-12-13, 02:34:05,VALID,1002.44,VALID,0,VALID,84.9628,VALID,0,VALID,25.746,VALID,350,VALID,0.646484,
2009-12-13, 02:35:05,VALID,1002.48,VALID,0,VALID,85.1536,VALID,0,VALID,25.7265,VALID,353,VALID,0.307813,
2009-12-13, 02:36:05,VALID,1002.49,VALID,0,VALID,85.2833,VALID,0,VALID,25.6876,VALID,330,VALID,0.466406,
2009-12-13, 02:37:05,VALID,1002.47,VALID,0,VALID,85.3672,VALID,0,VALID,25.6895,VALID,330,VALID,0.277734,
2009-12-13, 02:38:05,VALID,1002.49,VALID,0,VALID,85.6113,VALID,0,VALID,25.6895,VALID,351,VALID,0.253125,
2009-12-13, 02:39:05,VALID,1002.5,VALID,0,VALID,85.6113,VALID,0,VALID,25.6506,VALID,330,VALID,0.133594,
2009-12-13, 02:40:05,VALID,1002.46,VALID,0,VALID,85.7486,VALID,0,VALID,25.67,VALID,13,VALID,0.683203,
2009-12-13, 02:41:05,VALID,1002.46,VALID,0,VALID,85.7639,VALID,0,VALID,25.6486,VALID,352,VALID,0.653516,
2009-12-13, 02:42:05,VALID,1002.44,VALID,0,VALID,85.7028,VALID,0,VALID,25.6292,VALID,291,VALID,0.567187,
2009-12-13, 02:43:05,VALID,1002.43,VALID,0,VALID,85.802,VALID,0,VALID,25.6506,VALID,354,VALID,0.405469,
2009-12-13, 02:44:05,VALID,1002.41,VALID,0,VALID,85.8936,VALID,0,VALID,25.67,VALID,354,VALID,0.144141,
2009-12-13, 02:45:05,VALID,1002.43,VALID,0,VALID,85.7181,VALID,0,VALID,25.6506,VALID,354,VALID,0.758203,
2009-12-13, 02:46:05,VALID,1002.44,VALID,0,VALID,85.7181,VALID,0,VALID,25.6506,VALID,322,VALID,0.649609,
2009-12-13, 02:47:05,VALID,1002.47,VALID,0,VALID,85.8325,VALID,0,VALID,25.6292,VALID,330,VALID,0.401563,
2009-12-13, 02:48:05,VALID,1002.45,VALID,0,VALID,86.0004,VALID,0,VALID,25.6116,VALID,341,VALID,0.268359,
2009-12-13, 02:49:05,VALID,1002.47,VALID,0,VALID,85.9012,VALID,0,VALID,25.6311,VALID,352,VALID,0.55625,
2009-12-13, 02:50:05,VALID,1002.46,VALID,0,VALID,85.9393,VALID,0,VALID,25.5902,VALID,344,VALID,0.698438,
2009-12-13, 02:51:05,VALID,1002.42,VALID,0,VALID,86.0385,VALID,0,VALID,25.5921,VALID,13,VALID,0.691016,
2009-12-13, 02:52:05,VALID,1002.42,VALID,0,VALID,86.069,VALID,0,VALID,25.5707,VALID,358,VALID,0.734375,
2009-12-13, 02:53:05,VALID,1002.4,VALID,0,VALID,86.1224,VALID,0,VALID,25.5513,VALID,2,VALID,0.592969,
2009-12-13, 02:54:05,VALID,1002.4,VALID,0,VALID,86.1682,VALID,0,VALID,25.5727,VALID,341,VALID,0.949219,
2009-12-13, 02:55:05,VALID,1002.4,VALID,0,VALID,86.1529,VALID,0,VALID,25.5532,VALID,355,VALID,0.416797,
2009-12-13, 02:56:05,VALID,1002.37,VALID,0,VALID,86.2674,VALID,0,VALID,25.5532,VALID,7,VALID,0.433203,
2009-12-13, 02:57:05,VALID,1002.37,VALID,0,VALID,86.2292,VALID,0,VALID,25.5123,VALID,345,VALID,0.829297,
2009-12-13, 02:58:05,VALID,1002.36,VALID,0,VALID,86.2826,VALID,0,VALID,25.4928,VALID,324,VALID,0.463281,
2009-12-13, 02:59:05,VALID,1002.36,VALID,0,VALID,86.3742,VALID,0,VALID,25.4948,VALID,348,VALID,0.673437,
2009-12-13, 03:00:05,VALID,1002.39,VALID,0,VALID,86.42,VALID,0,VALID,25.4539,VALID,347,VALID,1.04414,
2009-12-13, 03:01:05,VALID,1002.37,VALID,0,VALID,86.542,VALID,0,VALID,25.4539,VALID,342,VALID,0.630078,
2009-12-13, 03:02:05,VALID,1002.38,VALID,0,VALID,86.6717,VALID,0,VALID,25.4363,VALID,341,VALID,0.357812,
2009-12-13, 03:03:05,VALID,1002.39,VALID,0,VALID,86.7327,VALID,0,VALID,25.4149,VALID,347,VALID,0.536328,
2009-12-13, 03:04:05,VALID,1002.43,VALID,0,VALID,86.7861,VALID,0,VALID,25.3955,VALID,270,VALID,0.525781,
2009-12-13, 03:05:05,VALID,1002.44,VALID,0,VALID,86.7709,VALID,0,VALID,25.4169,VALID,8,VALID,0.874219,
2009-12-13, 03:06:05,VALID,1002.47,VALID,0,VALID,86.8929,VALID,0,VALID,25.3955,VALID,323,VALID,0.366406,
2009-12-13, 03:07:05,VALID,1002.5,VALID,0,VALID,86.8701,VALID,0,VALID,25.3974,VALID,359,VALID,1.0207,
2009-12-13, 03:08:05,VALID,1002.49,VALID,0,VALID,86.9082,VALID,0,VALID,25.3974,VALID,356,VALID,0.888281,
2009-12-13, 03:09:05,VALID,1002.51,VALID,0,VALID,86.9845,VALID,0.100563,VALID,25.3565,VALID,353,VALID,0.616016,
2009-12-13, 03:10:05,VALID,1002.52,VALID,0,VALID,86.9845,VALID,0,VALID,25.337,VALID,348,VALID,0.635156,
2009-12-13, 03:11:05,VALID,1002.56,VALID,0,VALID,87.0608,VALID,0,VALID,25.337,VALID,354,VALID,0.648438,
2009-12-13, 03:12:05,VALID,1002.55,VALID,0,VALID,87.1142,VALID,0,VALID,25.337,VALID,360,VALID,0.890234,
2009-12-13, 03:13:05,VALID,1002.55,VALID,0,VALID,87.16,VALID,0,VALID,25.3195,VALID,337,VALID,0.574219,
2009-12-13, 03:14:05,VALID,1002.57,VALID,0,VALID,87.2362,VALID,0.100563,VALID,25.3195,VALID,352,VALID,0.304688,
2009-12-13, 03:15:05,VALID,1002.56,VALID,0,VALID,87.3278,VALID,0,VALID,25.2981,VALID,338,VALID,0.467578,
2009-12-13, 03:16:05,VALID,1002.59,VALID,0,VALID,87.282,VALID,0,VALID,25.2981,VALID,293,VALID,0.230078,
2009-12-13, 03:17:05,VALID,1002.56,VALID,0,VALID,87.2362,VALID,0.100563,VALID,25.3176,VALID,3,VALID,0.232422,
2009-12-13, 03:18:05,VALID,1002.56,VALID,0,VALID,87.1828,VALID,0,VALID,25.3176,VALID,349,VALID,0.216406,
2009-12-13, 03:19:05,VALID,1002.55,VALID,0,VALID,87.1828,VALID,0,VALID,25.2962,VALID,345,VALID,0.666406,
2009-12-13, 03:20:05,VALID,1002.52,VALID,0,VALID,87.1676,VALID,0,VALID,25.3176,VALID,346,VALID,0.465234,
2009-12-13, 03:21:05,VALID,1002.53,VALID,0,VALID,87.1371,VALID,0,VALID,25.2962,VALID,28,VALID,0.625781,
2009-12-13, 03:22:05,VALID,1002.52,VALID,0,VALID,87.1142,VALID,0.100563,VALID,25.3176,VALID,345,VALID,0.719141,
2009-12-13, 03:23:05,VALID,1002.52,VALID,0,VALID,87.1752,VALID,0,VALID,25.3176,VALID,351,VALID,0.00195313,
2009-12-13, 03:24:05,VALID,1002.5,VALID,0,VALID,87.1981,VALID,0,VALID,25.2981,VALID,328,VALID,0.287109,
2009-12-13, 03:25:05,VALID,1002.54,VALID,0,VALID,87.2286,VALID,0,VALID,25.2981,VALID,271,VALID,0.307422,
2009-12-13, 03:26:05,VALID,1002.54,VALID,0,VALID,87.2286,VALID,0.100563,VALID,25.3195,VALID,271,VALID,0.226563,
2009-12-13, 03:27:05,VALID,1002.52,VALID,0,VALID,87.1371,VALID,0.100563,VALID,25.2981,VALID,358,VALID,1.07266,
2009-12-13, 03:28:05,VALID,1002.53,VALID,0,VALID,87.0608,VALID,0,VALID,25.2981,VALID,343,VALID,0.933984,
2009-12-13, 03:29:05,VALID,1002.51,VALID,0,VALID,87.0532,VALID,0,VALID,25.3176,VALID,348,VALID,0.867578,
2009-12-13, 03:30:05,VALID,1002.48,VALID,0,VALID,87.16,VALID,0.100563,VALID,25.3195,VALID,347,VALID,0.619141,
2009-12-13, 03:31:04,VALID,1002.46,VALID,0,VALID,87.1523,VALID,0.100563,VALID,25.2786,VALID,348,VALID,0.835938,
2009-12-13, 03:32:04,VALID,1002.47,VALID,0,VALID,87.221,VALID,0,VALID,25.2592,VALID,349,VALID,0.846094,
2009-12-13, 03:33:04,VALID,1002.42,VALID,0,VALID,87.2591,VALID,0,VALID,25.2397,VALID,348,VALID,0.751953,
2009-12-13, 03:34:04,VALID,1002.44,VALID,0,VALID,87.3507,VALID,0,VALID,25.2611,VALID,350,VALID,0.672656,
2009-12-13, 03:35:04,VALID,1002.46,VALID,0,VALID,87.3812,VALID,0,VALID,25.2611,VALID,336,VALID,1.05469,
2009-12-13, 03:36:04,VALID,1002.49,VALID,0,VALID,87.343,VALID,0,VALID,25.2397,VALID,351,VALID,0.872656,
2009-12-13, 03:37:04,VALID,1002.52,VALID,0,VALID,87.3049,VALID,0.100563,VALID,25.2592,VALID,342,VALID,0.946875,
2009-12-13, 03:38:04,VALID,1002.52,VALID,0,VALID,87.3354,VALID,0,VALID,25.2592,VALID,359,VALID,0.582031,
2009-12-13, 03:39:04,VALID,1002.52,VALID,0,VALID,87.1981,VALID,0,VALID,25.2592,VALID,357,VALID,0.833984,
2009-12-13, 03:40:04,VALID,1002.49,VALID,0,VALID,87.2286,VALID,0.100563,VALID,25.2786,VALID,353,VALID,0.6375,
2009-12-13, 03:41:04,VALID,1002.5,VALID,0,VALID,87.1371,VALID,0.100563,VALID,25.2786,VALID,320,VALID,0.730859,
2009-12-13, 03:42:04,VALID,1002.53,VALID,0,VALID,87.076,VALID,0,VALID,25.2981,VALID,351,VALID,0.735547,
2009-12-13, 03:43:04,VALID,1002.54,VALID,0,VALID,87.1371,VALID,0,VALID,25.337,VALID,353,VALID,0.430078,
2009-12-13, 03:44:04,VALID,1002.54,VALID,0,VALID,87.0074,VALID,0.100563,VALID,25.3157,VALID,346,VALID,1.07852,